Location: Banksville Park
(38.5557°N, 75.1182°W)
Time: 23:02:06
(UTC+00:00)

ADEOS - Pass Details

Date: 19 September 2020
Orbit: 792 x 794 km, 98.9° (Epoch: 31 October)

Event Time Altitude Azimuth Distance (km) Brightness Sun altitude
Rises 10:05:19 0° 5° (N) 3,300 7.0 -8.7°
Reaches altitude 10° 10:07:45 10° 359° (N) 2,367 6.1 -8.3°
Maximum altitude 10:12:37 41° 290° (WNW) 1,143 4.0 -7.3°
Drops below altitude 10° 10:17:27 10° 222° (SW) 2,352 5.6 -6.4°
Sets 10:19:52 0° 215° (SW) 3,278 6.4 -5.9°
